AXB1924 VOML-VOKN

Flight info

Callsign AXB1924
Flight time 0h 18m
Altitude 13000
Route MML V86 KNR
Aircraft B38M/M-SDE1FGHILORVWXY/HB1

Departure

Time 2026-04-26 04:21
Airport Mangaluru International Airport (VOML)

Arrival

Time 2026-04-26 04:40
Airport Kannur International Airport (VOKN)
Time Latitude Longitude Altitude Speed Heading
2026-04-26 04:10 12.94995 74.87347 346 ft 0 kts 329°
2026-04-26 04:14 12.94990 74.87350 346 ft 4 kts 331°
2026-04-26 04:14 12.94965 74.87361 346 ft 4 kts 347°
2026-04-26 04:14 12.94939 74.87364 346 ft 4 kts 11°
2026-04-26 04:14 12.94916 74.87353 346 ft 4 kts 52°
2026-04-26 04:15 12.94910 74.87345 346 ft 0 kts 58°
2026-04-26 04:18 12.94926 74.87370 346 ft 9 kts 58°
2026-04-26 04:18 12.94975 74.87451 346 ft 15 kts 58°
2026-04-26 04:18 12.95007 74.87506 346 ft 4 kts 58°
2026-04-26 04:19 12.95019 74.87551 346 ft 11 kts 103°
2026-04-26 04:19 12.94960 74.87610 346 ft 9 kts 148°
2026-04-26 04:19 12.94951 74.87616 346 ft 0 kts 148°
2026-04-26 04:19 12.94928 74.87631 346 ft 12 kts 147°
2026-04-26 04:20 12.94871 74.87692 346 ft 9 kts 73°
2026-04-26 04:20 12.94891 74.87730 346 ft 3 kts 59°
2026-04-26 04:20 12.95024 74.87949 346 ft 78 kts 58°
2026-04-26 04:20 12.95451 74.88656 347 ft 152 kts 58°
2026-04-26 04:21 12.96083 74.89727 689 ft 193 kts 59°
2026-04-26 04:21 12.96759 74.90976 1546 ft 209 kts 66°
2026-04-26 04:21 12.96866 74.92455 2543 ft 205 kts 101°
2026-04-26 04:21 12.96223 74.93718 3413 ft 208 kts 130°
2026-04-26 04:22 12.94978 74.94644 3822 ft 233 kts 153°
2026-04-26 04:22 12.93469 74.95388 4303 ft 251 kts 153°
2026-04-26 04:22 12.91842 74.96216 4892 ft 270 kts 154°
2026-04-26 04:22 12.90122 74.97090 5698 ft 280 kts 155°
2026-04-26 04:23 12.88363 74.97984 6643 ft 283 kts 156°
2026-04-26 04:23 12.86595 74.98881 7656 ft 284 kts 157°
2026-04-26 04:23 12.84805 74.99789 8549 ft 289 kts 157°
2026-04-26 04:23 12.82990 75.00709 9434 ft 293 kts 157°
2026-04-26 04:24 12.81151 75.01642 10294 ft 298 kts 157°
2026-04-26 04:24 12.79263 75.02598 11022 ft 307 kts 157°
2026-04-26 04:24 12.77324 75.03580 11805 ft 313 kts 157°
2026-04-26 04:24 12.75352 75.04579 12539 ft 321 kts 157°
2026-04-26 04:25 12.73356 75.05590 12878 ft 325 kts 157°
2026-04-26 04:25 12.71328 75.06616 13052 ft 325 kts 157°
2026-04-26 04:25 12.69305 75.07640 13033 ft 324 kts 157°
2026-04-26 04:25 12.67291 75.08659 13018 ft 321 kts 157°
2026-04-26 04:26 12.65289 75.09672 13009 ft 321 kts 157°
2026-04-26 04:26 12.63291 75.10684 13002 ft 319 kts 157°
2026-04-26 04:26 12.61314 75.11686 12997 ft 315 kts 157°
2026-04-26 04:26 12.59351 75.12680 12996 ft 312 kts 157°
2026-04-26 04:27 12.57402 75.13666 12997 ft 311 kts 157°
2026-04-26 04:27 12.55478 75.14639 12989 ft 312 kts 157°
2026-04-26 04:27 12.53535 75.15622 12816 ft 311 kts 157°
2026-04-26 04:27 12.51602 75.16601 12627 ft 308 kts 157°
2026-04-26 04:28 12.49700 75.17564 12411 ft 304 kts 158°
2026-04-26 04:28 12.47808 75.18521 12122 ft 303 kts 158°
2026-04-26 04:28 12.45922 75.19474 11827 ft 302 kts 158°
2026-04-26 04:28 12.44042 75.20425 11531 ft 301 kts 158°
2026-04-26 04:29 12.42169 75.21371 11234 ft 300 kts 158°
2026-04-26 04:29 12.40297 75.22316 10934 ft 299 kts 158°
2026-04-26 04:29 12.38427 75.23260 10632 ft 299 kts 158°
2026-04-26 04:29 12.36566 75.24199 10339 ft 298 kts 157°
2026-04-26 04:30 12.34720 75.25130 10155 ft 293 kts 158°
2026-04-26 04:30 12.32907 75.26045 9947 ft 289 kts 158°
2026-04-26 04:30 12.31127 75.26943 9666 ft 288 kts 158°
2026-04-26 04:30 12.29329 75.27850 9374 ft 288 kts 158°
2026-04-26 04:31 12.27536 75.28754 9077 ft 287 kts 158°
2026-04-26 04:31 12.25742 75.29658 8775 ft 287 kts 158°
2026-04-26 04:31 12.24017 75.30685 8464 ft 290 kts 145°
2026-04-26 04:31 12.22600 75.32166 8162 ft 292 kts 132°
2026-04-26 04:32 12.21344 75.33804 7850 ft 292 kts 129°
2026-04-26 04:32 12.20145 75.35480 7538 ft 292 kts 128°
2026-04-26 04:32 12.18977 75.37141 7229 ft 291 kts 128°
2026-04-26 04:32 12.17795 75.38825 6915 ft 290 kts 128°
2026-04-26 04:33 12.16620 75.40501 6603 ft 290 kts 127°
2026-04-26 04:33 12.15455 75.42169 6327 ft 287 kts 126°
2026-04-26 04:33 12.14298 75.43829 6041 ft 285 kts 126°
2026-04-26 04:33 12.13153 75.45472 5749 ft 283 kts 125°
2026-04-26 04:34 12.12010 75.47111 5451 ft 281 kts 125°
2026-04-26 04:34 12.10877 75.48734 5153 ft 279 kts 125°
2026-04-26 04:34 12.09767 75.50326 4856 ft 277 kts 125°
2026-04-26 04:34 12.08651 75.51925 4551 ft 276 kts 125°
2026-04-26 04:35 12.07541 75.53514 4256 ft 273 kts 125°
2026-04-26 04:35 12.06453 75.55073 4093 ft 266 kts 125°
2026-04-26 04:35 12.05396 75.56588 3942 ft 258 kts 125°
2026-04-26 04:35 12.04369 75.58057 3799 ft 250 kts 125°
2026-04-26 04:36 12.03376 75.59480 3662 ft 242 kts 125°
2026-04-26 04:36 12.02417 75.60852 3530 ft 233 kts 125°
2026-04-26 04:36 12.01486 75.62186 3400 ft 225 kts 125°
2026-04-26 04:36 12.00598 75.63456 3279 ft 221 kts 125°
2026-04-26 04:37 11.99683 75.64697 3144 ft 218 kts 134°
2026-04-26 04:37 11.98397 75.65471 3036 ft 216 kts 159°
2026-04-26 04:37 11.96888 75.65672 2539 ft 231 kts 190°
2026-04-26 04:37 11.95517 75.64855 2166 ft 232 kts 229°
2026-04-26 04:38 11.94855 75.63398 1919 ft 224 kts 255°
2026-04-26 04:38 11.94444 75.61895 1652 ft 212 kts 252°
2026-04-26 04:38 11.94037 75.60519 1349 ft 194 kts 252°
2026-04-26 04:38 11.93587 75.59282 1072 ft 178 kts 249°
2026-04-26 04:39 11.93160 75.58154 839 ft 163 kts 249°
2026-04-26 04:39 11.92900 75.57463 729 ft 153 kts 249°
2026-04-26 04:39 11.92528 75.56474 514 ft 145 kts 249°
2026-04-26 04:39 11.92057 75.55221 352 ft 125 kts 249°
2026-04-26 04:40 11.91916 75.54849 352 ft 15 kts 249°
2026-04-26 04:40 11.91841 75.54760 352 ft 16 kts 168°
2026-04-26 04:40 11.91758 75.54792 352 ft 10 kts 159°
2026-04-26 04:40 11.91680 75.54822 352 ft 18 kts 159°
2026-04-26 04:41 11.91615 75.54857 352 ft 8 kts 112°
2026-04-26 04:41 11.91624 75.54900 352 ft 8 kts 69°
2026-04-26 04:41 11.91668 75.55016 352 ft 25 kts 70°
2026-04-26 04:41 11.91727 75.55172 352 ft 21 kts 68°
2026-04-26 04:42 11.91774 75.55297 352 ft 18 kts 70°
2026-04-26 04:42 11.91794 75.55370 352 ft 5 kts 110°
2026-04-26 04:42 11.91758 75.55390 352 ft 5 kts 160°
2026-04-26 04:42 11.91740 75.55397 352 ft 0 kts 160°
2026-04-26 04:43 11.91734 75.55399 352 ft 0 kts 160°